This is the latest recevied weather packets stored in our database for station/object EFTP. If no packets are shown the sender has not sent any weather packets the latest 10 day(s).
| Time | Temp. | Humidity | Pressure | Rain* | Wind** | Luminosity | Snow |
|---|---|---|---|---|---|---|---|
| 1777466810 | 8.89° C | 28% | 1024.1 hPa | - | - | - | - |
| 1777465610 | 8.33° C | 30% | 1024.4 hPa | - | - | - | - |
| 1777464410 | 8.33° C | 29% | 1024.5 hPa | - | - | - | - |
| 1777463210 | 7.78° C | 29% | 1024.7 hPa | - | - | - | - |
| 1777462010 | 8.33° C | 30% | 1025 hPa | - | - | - | - |
| 1777460810 | 7.78° C | 30% | 1025 hPa | - | - | - | - |
| 1777459609 | 6.67° C | 30% | 1025.2 hPa | - | - | - | - |
| 1777458411 | 7.22° C | 32% | 1025.2 hPa | - | - | - | - |
| 1777457209 | 6.67° C | 32% | 1025.4 hPa | - | - | - | - |
| 1777456009 | 6.67° C | 32% | 1025.5 hPa | - | - | - | - |
| 1777454809 | 7.22° C | 32% | 1025.5 hPa | - | - | - | - |
| 1777453609 | 5.56° C | 36% | 1025.8 hPa | - | - | - | - |
| 1777452409 | 5.56° C | 35% | 1025.9 hPa | - | - | - | - |
| 1777451209 | 5° C | 38% | 1026.1 hPa | - | - | - | - |
| 1777450009 | 4.44° C | 41% | 1026.2 hPa | - | - | - | - |
| 1777448809 | 4.44° C | 41% | 1026.3 hPa | - | - | - | - |
| 1777447609 | 3.89° C | 40% | 1026.3 hPa | - | - | - | - |
| 1777446409 | 3.89° C | 41% | 1026.4 hPa | - | - | - | - |
| 1777445209 | 3.89° C | 41% | 1026.5 hPa | - | - | - | - |
| 1777444009 | 3.33° C | 46% | 1026.4 hPa | - | - | - | - |
| 1777442808 | 2.78° C | 48% | 1026.4 hPa | - | - | - | - |
| 1777441608 | 2.22° C | 53% | 1026.5 hPa | - | - | - | - |
| 1777440408 | 1.67° C | 56% | 1026.6 hPa | - | - | - | - |
| 1777439208 | 0.56° C | 60% | 1026.6 hPa | - | - | - | - |
| 1777438008 | 0° C | 64% | 1026.7 hPa | - | - | - | - |
* Rain since midnight (hover to see other rain measurements)
** Current wind speed in m/s (hover to see current wind gust speed)